| time (UTC) | temp C | wind direction | speed KPH | gust KPH | rain 1hr cm | rain 24hr cm | rain mn cm | humidity % | barometer mb |
| 20260507090605 | 6 | 306 | 0.0 | 3.2 | 0.00 | 0.00 | 0.00 | 82 | 1019.5 |
| 20260507090105 | 6 | 306 | 0.0 | 1.6 | 0.00 | 0.00 | 0.00 | 82 | 1019.5 |
| 20260507085605 | 6 | 306 | 0.0 | 1.6 | 0.00 | 0.00 | 0.00 | 83 | 1019.4 |
| 20260507085105 | 6 | 308 | 0.0 | 1.6 | 0.00 | 0.00 | 0.00 | 83 | 1019.4 |
| 20260507084605 | 6 | 308 | 0.0 | 1.6 | 0.00 | 0.00 | 0.00 | 83 | 1019.2 |
| 20260507084105 | 6 | 307 | 0.0 | 1.6 | 0.00 | 0.00 | 0.00 | 83 | 1019.4 |
| 20260507083604 | 6 | 307 | 0.0 | 1.6 | 0.00 | 0.00 | 0.00 | 83 | 1019.4 |
| 20260507083104 | 6 | 307 | 1.6 | 1.6 | 0.00 | 0.00 | 0.00 | 83 | 1019.5 |
| 20260507082604 | 6 | 307 | 1.6 | 1.6 | 0.00 | 0.00 | 0.00 | 83 | 1019.4 |
| 20260507081605 | 6 | 306 | 0.0 | 3.2 | 0.00 | 0.00 | 0.00 | 81 | 1019.4 |
| 20260507081105 | 7 | 306 | 1.6 | 3.2 | 0.00 | 0.00 | 0.00 | 81 | 1019.6 |
| 20260507080104 | 7 | 306 | 0.0 | 1.6 | 0.00 | 0.00 | 0.00 | 80 | 1019.4 |
| 20260507075604 | 7 | 306 | 0.0 | 3.2 | 0.00 | 0.00 | 0.00 | 80 | 1019.4 |
| 20260507075105 | 7 | 306 | 0.0 | 3.2 | 0.00 | 0.00 | 0.00 | 80 | 1019.4 |
| 20260507074605 | 7 | 306 | 1.6 | 3.2 | 0.00 | 0.00 | 0.00 | 80 | 1019.3 |
| 20260507074104 | 7 | 306 | 0.0 | 0.0 | 0.00 | 0.00 | 0.00 | 80 | 1019.4 |
| 20260507073604 | 7 | 306 | 0.0 | 0.0 | 0.00 | 0.00 | 0.00 | 79 | 1019.5 |
| 20260507072605 | 8 | 306 | 0.0 | 3.2 | 0.00 | 0.00 | 0.00 | 79 | 1019.7 |
| 20260507072105 | 8 | 306 | 0.0 | 8.0 | 0.00 | 0.00 | 0.00 | 79 | 1019.7 |
| 20260507071605 | 8 | 308 | 3.2 | 8.0 | 0.00 | 0.00 | 0.00 | 79 | 1019.6 |
| 20260507070104 | 7 | 281 | 0.0 | 0.0 | 0.00 | 0.00 | 0.00 | 80 | 1019.6 |
| 20260507065605 | 7 | 239 | 0.0 | 0.0 | 0.00 | 0.00 | 0.00 | 79 | 1019.5 |
| 20260507064104 | 8 | 227 | 0.0 | 0.0 | 0.00 | 0.00 | 0.00 | 80 | 1019.4 |
| 20260507063605 | 7 | 227 | 0.0 | 0.0 | 0.00 | 0.00 | 0.00 | 80 | 1019.4 |
| 20260507063105 | 7 | 227 | 0.0 | 0.0 | 0.00 | 0.00 | 0.00 | 79 | 1019.4 |
| 20260507062604 | 7 | 227 | 0.0 | 0.0 | 0.00 | 0.00 | 0.00 | 78 | 1019.5 |
| 20260507062104 | 8 | 227 | 0.0 | 0.0 | 0.00 | 0.00 | 0.00 | 77 | 1019.7 |
| 20260507061605 | 8 | 283 | 0.0 | 0.0 | 0.00 | 0.00 | 0.00 | 77 | 1019.8 |
| 20260507061105 | 8 | 290 | 0.0 | 0.0 | 0.00 | 0.00 | 0.00 | 77 | 1019.6 |
| 20260507060604 | 8 | 290 | 0.0 | 0.0 | 0.00 | 0.00 | 0.00 | 76 | 1019.8 |
| 20260507060105 | 9 | 290 | 0.0 | 0.0 | 0.00 | 0.00 | 0.00 | 76 | 1020.0 |
| 20260507054604 | 9 | 290 | 0.0 | 0.0 | 0.00 | 0.00 | 0.00 | 75 | 1020.1 |
| 20260507054104 | 9 | 290 | 0.0 | 0.0 | 0.00 | 0.00 | 0.00 | 75 | 1020.1 |
| 20260507053605 | 9 | 290 | 0.0 | 0.0 | 0.00 | 0.00 | 0.00 | 74 | 1020.0 |
| 20260507053105 | 9 | 290 | 0.0 | 0.0 | 0.00 | 0.00 | 0.00 | 74 | 1020.0 |
| 20260507052605 | 9 | 290 | 0.0 | 0.0 | 0.00 | 0.00 | 0.00 | 74 | 1020.2 |
| 20260507052104 | 9 | 290 | 0.0 | 0.0 | 0.00 | 0.00 | 0.00 | 74 | 1020.1 |
| 20260507051605 | 10 | 290 | 0.0 | 0.0 | 0.00 | 0.00 | 0.00 | 74 | 1020.0 |
| 20260507051105 | 10 | 290 | 0.0 | 0.0 | 0.00 | 0.00 | 0.00 | 73 | 1019.8 |
| 20260507050604 | 10 | 290 | 0.0 | 0.0 | 0.00 | 0.00 | 0.00 | 73 | 1019.8 |
| 20260507050104 | 10 | 290 | 0.0 | 0.0 | 0.00 | 0.00 | 0.00 | 72 | 1019.9 |
| 20260507045105 | 10 | 290 | 0.0 | 3.2 | 0.00 | 0.00 | 0.00 | 70 | 1019.9 |
| 20260507044604 | 11 | 290 | 0.0 | 3.2 | 0.00 | 0.00 | 0.00 | 69 | 1019.8 |
| 20260507044105 | 11 | 290 | 1.6 | 4.8 | 0.00 | 0.00 | 0.00 | 68 | 1019.7 |
| 20260507043605 | 11 | 291 | 3.2 | 4.8 | 0.00 | 0.00 | 0.00 | 67 | 1019.7 |
| 20260507042605 | 12 | 311 | 1.6 | 3.2 | 0.00 | 0.00 | 0.00 | 65 | 1019.6 |
| 20260507042104 | 12 | 313 | 0.0 | 3.2 | 0.00 | 0.00 | 0.00 | 65 | 1019.5 |
| 20260507041604 | 12 | 313 | 1.6 | 8.0 | 0.00 | 0.00 | 0.00 | 66 | 1019.4 |
| 20260507041105 | 11 | 22 | 3.2 | 8.0 | 0.00 | 0.00 | 0.00 | 66 | 1019.0 |
| 20260507040605 | 12 | 64 | 1.6 | 8.0 | 0.00 | 0.00 | 0.00 | 66 | 1018.5 |
| 20260507035604 | 12 | 62 | 3.2 | 9.7 | 0.00 | 0.00 | 0.00 | 66 | 1018.6 |
| 20260507034104 | 12 | 61 | 1.6 | 4.8 | 0.00 | 0.00 | 0.00 | 65 | 1018.7 |
| 20260507033604 | 12 | 59 | 0.0 | 3.2 | 0.00 | 0.00 | 0.00 | 64 | 1018.8 |
| 20260507032605 | 12 | 21 | 1.6 | 4.8 | 0.00 | 0.00 | 0.00 | 63 | 1018.9 |
| 20260507032105 | 12 | 24 | 1.6 | 3.2 | 0.00 | 0.00 | 0.00 | 63 | 1018.9 |
| 20260507031605 | 12 | 33 | 1.6 | 3.2 | 0.00 | 0.00 | 0.00 | 63 | 1018.8 |
| 20260507031104 | 12 | 51 | 0.0 | 4.8 | 0.00 | 0.00 | 0.00 | 63 | 1018.7 |
| 20260507030604 | 12 | 51 | 0.0 | 4.8 | 0.00 | 0.00 | 0.00 | 62 | 1018.7 |
| 20260507030105 | 13 | 43 | 1.6 | 3.2 | 0.00 | 0.00 | 0.00 | 61 | 1018.5 |
| 20260507025604 | 13 | 26 | 0.0 | 4.8 | 0.00 | 0.00 | 0.00 | 61 | 1018.6 |
| 20260507025104 | 13 | 2 | 3.2 | 4.8 | 0.00 | 0.00 | 0.00 | 61 | 1018.4 |
| 20260507024604 | 13 | 19 | 3.2 | 4.8 | 0.00 | 0.00 | 0.00 | 61 | 1018.2 |
| 20260507024104 | 13 | 27 | 1.6 | 4.8 | 0.00 | 0.00 | 0.00 | 60 | 1018.2 |
| 20260507023604 | 13 | 37 | 3.2 | 4.8 | 0.00 | 0.00 | 0.00 | 60 | 1018.1 |
| 20260507022604 | 13 | 58 | 1.6 | 4.8 | 0.00 | 0.00 | 0.00 | 59 | 1018.1 |
| 20260507022104 | 13 | 24 | 1.6 | 4.8 | 0.00 | 0.00 | 0.00 | 59 | 1018.0 |
| 20260507021604 | 13 | 43 | 3.2 | 4.8 | 0.00 | 0.00 | 0.00 | 58 | 1018.0 |
| 20260507020104 | 14 | 15 | 4.8 | 11.3 | 0.00 | 0.00 | 0.00 | 57 | 1017.8 |
| 20260507015604 | 15 | 31 | 3.2 | 9.7 | 0.00 | 0.00 | 0.00 | 56 | 1017.7 |
| 20260507015104 | 15 | 50 | 1.6 | 9.7 | 0.00 | 0.00 | 0.00 | 56 | 1017.7 |
| 20260507013605 | 15 | 51 | 3.2 | 12.9 | 0.00 | 0.00 | 0.00 | 55 | 1017.4 |
| 20260507012604 | 15 | 18 | 4.8 | 22.5 | 0.00 | 0.00 | 0.00 | 54 | 1017.2 |
| 20260507012104 | 16 | 53 | 4.8 | 22.5 | 0.00 | 0.00 | 0.00 | 53 | 1017.2 |
| 20260507011605 | 16 | 57 | 4.8 | 22.5 | 0.00 | 0.00 | 0.00 | 53 | 1017.1 |
| 20260507011105 | 16 | 40 | 6.4 | 16.1 | 0.00 | 0.00 | 0.00 | 52 | 1017.1 |
| 20260507010604 | 16 | 43 | 6.4 | 16.1 | 0.00 | 0.00 | 0.00 | 52 | 1017.0 |
| 20260507005105 | 16 | 25 | 4.8 | 19.3 | 0.00 | 0.00 | 0.00 | 52 | 1017.0 |
| 20260507004604 | 16 | 53 | 4.8 | 19.3 | 0.00 | 0.00 | 0.00 | 52 | 1017.0 |
| 20260507003604 | 17 | 34 | 3.2 | 12.9 | 0.00 | 0.00 | 0.00 | 52 | 1017.0 |
| 20260507003104 | 17 | 14 | 3.2 | 14.5 | 0.00 | 0.00 | 0.00 | 52 | 1016.9 |
| 20260507002604 | 17 | 28 | 8.0 | 19.3 | 0.00 | 0.00 | 0.00 | 51 | 1016.9 |
| 20260507002105 | 17 | 18 | 8.0 | 20.9 | 0.00 | 0.00 | 0.00 | 50 | 1016.9 |
| 20260507001604 | 17 | 29 | 11.3 | 22.5 | 0.00 | 0.00 | 0.00 | 50 | 1016.8 |
| 20260507000605 | 18 | 41 | 9.7 | 19.3 | 0.00 | 0.00 | 0.00 | 48 | 1016.8 |
| 20260507000104 | 18 | 61 | 4.8 | 20.9 | 0.00 | 0.00 | 0.00 | 49 | 1016.8 |
| 20260506235605 | 18 | 50 | 8.0 | 20.9 | 0.00 | 0.00 | 0.00 | 48 | 1016.7 |
| 20260506235104 | 18 | 7 | 6.4 | 19.3 | 0.00 | 0.00 | 0.00 | 48 | 1016.7 |
| 20260506234604 | 18 | 17 | 4.8 | 14.5 | 0.00 | 0.00 | 0.00 | 49 | 1016.7 |
| 20260506234105 | 18 | 22 | 8.0 | 19.3 | 0.00 | 0.00 | 0.00 | 48 | 1016.6 |
| 20260506233605 | 18 | 54 | 8.0 | 20.9 | 0.00 | 0.00 | 0.00 | 49 | 1016.6 |
| 20260506233104 | 18 | 2 | 9.7 | 20.9 | 0.00 | 0.00 | 0.00 | 48 | 1016.5 |
| 20260506232604 | 18 | 51 | 6.4 | 20.9 | 0.00 | 0.00 | 0.00 | 48 | 1016.4 |
| 20260506232104 | 18 | 13 | 9.7 | 20.9 | 0.00 | 0.00 | 0.00 | 48 | 1016.3 |
| 20260506231604 | 18 | 51 | 8.0 | 19.3 | 0.00 | 0.00 | 0.00 | 48 | 1016.4 |
| 20260506231104 | 18 | 23 | 6.4 | 20.9 | 0.00 | 0.00 | 0.00 | 48 | 1016.3 |
| 20260506230604 | 18 | 20 | 6.4 | 20.9 | 0.00 | 0.00 | 0.00 | 48 | 1016.3 |
| 20260506230105 | 18 | 17 | 9.7 | 20.9 | 0.00 | 0.00 | 0.00 | 48 | 1016.2 |
| 20260506225605 | 18 | 55 | 8.0 | 22.5 | 0.00 | 0.00 | 0.00 | 48 | 1016.2 |
| 20260506225105 | 18 | 1 | 8.0 | 22.5 | 0.00 | 0.00 | 0.00 | 48 | 1016.2 |
| 20260506224605 | 18 | 43 | 4.8 | 19.3 | 0.00 | 0.00 | 0.00 | 49 | 1016.0 |
| 20260506224104 | 18 | 16 | 9.7 | 19.3 | 0.00 | 0.00 | 0.00 | 48 | 1016.1 |
| 20260506223605 | 19 | 31 | 4.8 | 16.1 | 0.00 | 0.00 | 0.00 | 47 | 1016.0 |
| 20260506223104 | 19 | 52 | 8.0 | 16.1 | 0.00 | 0.00 | 0.00 | 48 | 1015.9 |
| 20260506221604 | 18 | 56 | 8.0 | 19.3 | 0.00 | 0.00 | 0.00 | 48 | 1015.7 |
| 20260506221105 | 19 | 39 | 8.0 | 19.3 | 0.00 | 0.00 | 0.00 | 48 | 1015.7 |
| 20260506220605 | 19 | 71 | 4.8 | 29.0 | 0.00 | 0.00 | 0.00 | 49 | 1015.7 |
| 20260506220104 | 18 | 70 | 8.0 | 29.0 | 0.00 | 0.00 | 0.00 | 49 | 1015.8 |
| 20260506215604 | 18 | 51 | 14.5 | 29.0 | 0.00 | 0.00 | 0.00 | 48 | 1015.8 |
| 20260506214605 | 18 | 43 | 4.8 | 22.5 | 0.00 | 0.00 | 0.00 | 49 | 1015.8 |
| 20260506214104 | 18 | 55 | 8.0 | 22.5 | 0.00 | 0.00 | 0.00 | 50 | 1015.9 |
| 20260506213604 | 18 | 55 | 9.7 | 22.5 | 0.00 | 0.00 | 0.00 | 50 | 1015.9 |
| 20260506213104 | 18 | 0 | 8.0 | 19.3 | 0.00 | 0.00 | 0.00 | 51 | 1015.9 |
| 20260506212604 | 18 | 65 | 9.7 | 19.3 | 0.00 | 0.00 | 0.00 | 52 | 1016.0 |
| 20260506212104 | 17 | 29 | 4.8 | 25.7 | 0.00 | 0.00 | 0.00 | 53 | 1016.2 |
| 20260506211604 | 17 | 24 | 9.7 | 25.7 | 0.00 | 0.00 | 0.00 | 52 | 1016.2 |
| 20260506211105 | 17 | 44 | 8.0 | 20.9 | 0.00 | 0.00 | 0.00 | 53 | 1016.3 |
| 20260506210604 | 17 | 60 | 9.7 | 19.3 | 0.00 | 0.00 | 0.00 | 53 | 1016.3 |
| 20260506205604 | 17 | 354 | 11.3 | 20.9 | 0.00 | 0.00 | 0.00 | 51 | 1016.4 |
| 20260506205104 | 18 | 55 | 8.0 | 19.3 | 0.00 | 0.00 | 0.00 | 54 | 1016.5 |
| 20260506204604 | 18 | 13 | 9.7 | 19.3 | 0.00 | 0.00 | 0.00 | 51 | 1016.5 |
| 20260506204104 | 18 | 349 | 8.0 | 22.5 | 0.00 | 0.00 | 0.00 | 53 | 1016.5 |
| 20260506203605 | 17 | 68 | 11.3 | 25.7 | 0.00 | 0.00 | 0.00 | 53 | 1016.5 |
| 20260506203104 | 17 | 33 | 9.7 | 25.7 | 0.00 | 0.00 | 0.00 | 54 | 1016.6 |
| 20260506202604 | 18 | 29 | 8.0 | 25.7 | 0.00 | 0.00 | 0.00 | 54 | 1016.6 |
| 20260506202104 | 17 | 40 | 8.0 | 24.1 | 0.00 | 0.00 | 0.00 | 54 | 1016.6 |
| 20260506201104 | 17 | 28 | 6.4 | 25.7 | 0.00 | 0.00 | 0.00 | 54 | 1016.8 |
| 20260506200604 | 17 | 55 | 9.7 | 20.9 | 0.00 | 0.00 | 0.00 | 55 | 1016.8 |
| 20260506200105 | 17 | 32 | 8.0 | 19.3 | 0.00 | 0.00 | 0.00 | 56 | 1016.8 |
| 20260506195604 | 17 | 357 | 3.2 | 20.9 | 0.00 | 0.00 | 0.00 | 55 | 1016.9 |
| 20260506195104 | 16 | 66 | 8.0 | 20.9 | 0.00 | 0.00 | 0.00 | 56 | 1016.9 |
| 20260506194105 | 16 | 20 | 8.0 | 20.9 | 0.00 | 0.00 | 0.00 | 57 | 1017.0 |
| 20260506193604 | 16 | 65 | 4.8 | 19.3 | 0.00 | 0.00 | 0.00 | 58 | 1017.1 |
| 20260506193104 | 16 | 7 | 8.0 | 19.3 | 0.00 | 0.00 | 0.00 | 57 | 1017.2 |
| 20260506192604 | 16 | 53 | 4.8 | 19.3 | 0.00 | 0.00 | 0.00 | 58 | 1017.3 |
| 20260506192104 | 16 | 16 | 8.0 | 19.3 | 0.00 | 0.00 | 0.00 | 57 | 1017.3 |
| 20260506191604 | 16 | 43 | 6.4 | 20.9 | 0.00 | 0.00 | 0.00 | 58 | 1017.3 |
| 20260506185104 | 16 | 37 | 9.7 | 24.1 | 0.00 | 0.00 | 0.00 | 57 | 1017.5 |
| 20260506183604 | 16 | 36 | 8.0 | 19.3 | 0.00 | 0.00 | 0.00 | 57 | 1017.5 |
| 20260506183104 | 16 | 45 | 4.8 | 19.3 | 0.00 | 0.00 | 0.00 | 57 | 1017.5 |
| 20260506182604 | 16 | 55 | 8.0 | 19.3 | 0.00 | 0.00 | 0.00 | 58 | 1017.6 |
| 20260506182104 | 16 | 57 | 9.7 | 19.3 | 0.00 | 0.00 | 0.00 | 56 | 1017.6 |
| 20260506181604 | 16 | 62 | 6.4 | 25.7 | 0.00 | 0.00 | 0.00 | 58 | 1017.8 |
| 20260506181105 | 16 | 51 | 8.0 | 25.7 | 0.00 | 0.00 | 0.00 | 57 | 1017.7 |
| 20260506180105 | 16 | 104 | 8.0 | 20.9 | 0.00 | 0.00 | 0.00 | 56 | 1017.8 |
| 20260506175104 | 16 | 56 | 8.0 | 25.7 | 0.00 | 0.00 | 0.00 | 56 | 1017.9 |
| 20260506174605 | 16 | 23 | 8.0 | 25.7 | 0.00 | 0.00 | 0.00 | 57 | 1017.8 |
| 20260506174104 | 16 | 52 | 9.7 | 22.5 | 0.00 | 0.00 | 0.00 | 60 | 1017.9 |
| 20260506173604 | 15 | 47 | 11.3 | 20.9 | 0.00 | 0.00 | 0.00 | 57 | 1017.9 |
| 20260506173104 | 15 | 33 | 8.0 | 20.9 | 0.00 | 0.00 | 0.00 | 57 | 1018.1 |
| 20260506172604 | 16 | 49 | 11.3 | 20.9 | 0.00 | 0.00 | 0.00 | 56 | 1018.1 |
| 20260506172105 | 16 | 22 | 9.7 | 22.5 | 0.00 | 0.00 | 0.00 | 55 | 1018.0 |
| 20260506171104 | 16 | 80 | 11.3 | 22.5 | 0.00 | 0.00 | 0.00 | 58 | 1018.0 |
| 20260506165604 | 16 | 42 | 8.0 | 25.7 | 0.00 | 0.00 | 0.00 | 58 | 1018.0 |
| 20260506165104 | 15 | 91 | 19.3 | 25.7 | 0.00 | 0.00 | 0.00 | 57 | 1018.1 |
| 20260506164604 | 15 | 58 | 9.7 | 27.4 | 0.00 | 0.00 | 0.00 | 58 | 1018.0 |
| 20260506164104 | 15 | 72 | 9.7 | 27.4 | 0.00 | 0.00 | 0.00 | 59 | 1018.2 |
| 20260506163604 | 15 | 68 | 12.9 | 25.7 | 0.00 | 0.00 | 0.00 | 58 | 1018.3 |
| 20260506163104 | 15 | 72 | 8.0 | 29.0 | 0.00 | 0.00 | 0.00 | 59 | 1018.3 |
| 20260506162604 | 15 | 67 | 16.1 | 29.0 | 0.00 | 0.00 | 0.00 | 58 | 1018.3 |
| 20260506162104 | 15 | 61 | 11.3 | 29.0 | 0.00 | 0.00 | 0.00 | 59 | 1018.2 |
| 20260506161105 | 15 | 82 | 11.3 | 25.7 | 0.00 | 0.00 | 0.00 | 60 | 1018.4 |
| 20260506160604 | 14 | 73 | 14.5 | 25.7 | 0.00 | 0.00 | 0.00 | 61 | 1018.2 |
| 20260506155604 | 13 | 78 | 11.3 | 24.1 | 0.00 | 0.00 | 0.00 | 63 | 1018.1 |
| 20260506154605 | 13 | 68 | 14.5 | 32.2 | 0.00 | 0.00 | 0.00 | 65 | 1018.2 |
| 20260506153604 | 13 | 72 | 9.7 | 27.4 | 0.00 | 0.00 | 0.00 | 67 | 1017.9 |
| 20260506153104 | 12 | 45 | 9.7 | 27.4 | 0.00 | 0.00 | 0.00 | 67 | 1017.9 |
| 20260506152604 | 12 | 53 | 11.3 | 27.4 | 0.00 | 0.00 | 0.00 | 68 | 1017.9 |
| 20260506152104 | 12 | 59 | 14.5 | 20.9 | 0.00 | 0.00 | 0.00 | 69 | 1017.8 |
| 20260506151604 | 12 | 47 | 8.0 | 29.0 | 0.00 | 0.00 | 0.00 | 70 | 1018.0 |
| 20260506151104 | 12 | 46 | 11.3 | 29.0 | 0.00 | 0.00 | 0.00 | 71 | 1018.0 |
| 20260506150604 | 11 | 58 | 11.3 | 22.5 | 0.00 | 0.00 | 0.00 | 72 | 1018.0 |
| 20260506150104 | 11 | 47 | 6.4 | 20.9 | 0.00 | 0.00 | 0.00 | 74 | 1017.9 |
| 20260506145604 | 11 | 47 | 11.3 | 20.9 | 0.00 | 0.00 | 0.00 | 73 | 1017.9 |
| 20260506144604 | 10 | 49 | 9.7 | 24.1 | 0.00 | 0.00 | 0.00 | 76 | 1017.8 |
| 20260506144104 | 10 | 26 | 12.9 | 24.1 | 0.00 | 0.00 | 0.00 | 76 | 1017.7 |
| 20260506143104 | 10 | 51 | 8.0 | 27.4 | 0.00 | 0.00 | 0.00 | 78 | 1017.3 |
| 20260506142604 | 10 | 61 | 11.3 | 29.0 | 0.00 | 0.00 | 0.00 | 78 | 1017.3 |
| 20260506142103 | 10 | 63 | 12.9 | 29.0 | 0.00 | 0.00 | 0.00 | 78 | 1017.4 |
| 20260506141104 | 10 | 22 | 8.0 | 20.9 | 0.00 | 0.00 | 0.00 | 79 | 1017.4 |
| 20260506135604 | 10 | 23 | 9.7 | 20.9 | 0.00 | 0.00 | 0.00 | 81 | 1017.5 |
| 20260506135104 | 9 | 55 | 11.3 | 20.9 | 0.00 | 0.00 | 0.00 | 81 | 1017.5 |
| 20260506134104 | 9 | 65 | 6.4 | 20.9 | 0.00 | 0.00 | 0.00 | 82 | 1017.7 |
| 20260506133604 | 9 | 18 | 8.0 | 20.9 | 0.00 | 0.00 | 0.00 | 82 | 1017.7 |
| 20260506133104 | 9 | 49 | 8.0 | 22.5 | 0.00 | 0.00 | 0.00 | 82 | 1017.6 |
| 20260506132103 | 9 | 61 | 8.0 | 22.5 | 0.00 | 0.00 | 0.00 | 83 | 1017.8 |
| 20260506131604 | 9 | 28 | 4.8 | 22.5 | 0.00 | 0.00 | 0.00 | 83 | 1017.8 |
| 20260506131104 | 9 | 28 | 9.7 | 22.5 | 0.00 | 0.00 | 0.00 | 83 | 1017.6 |
| 20260506130604 | 9 | 27 | 9.7 | 22.5 | 0.00 | 0.00 | 0.00 | 83 | 1017.7 |
| 20260506130104 | 9 | 84 | 8.0 | 19.3 | 0.00 | 0.00 | 0.00 | 83 | 1017.5 |
| 20260506125104 | 9 | 31 | 8.0 | 20.9 | 0.00 | 0.00 | 0.00 | 83 | 1017.4 |
| 20260506124604 | 9 | 36 | 8.0 | 20.9 | 0.00 | 0.00 | 0.00 | 83 | 1017.4 |
| 20260506123604 | 9 | 73 | 6.4 | 25.7 | 0.00 | 0.00 | 0.00 | 84 | 1017.1 |
| 20260506122604 | 8 | 30 | 8.0 | 19.3 | 0.00 | 0.00 | 0.00 | 84 | 1016.8 |
| 20260506121603 | 8 | 36 | 8.0 | 22.5 | 0.00 | 0.00 | 0.00 | 85 | 1016.6 |
| 20260506121104 | 8 | 43 | 9.7 | 22.5 | 0.00 | 0.00 | 0.00 | 85 | 1016.5 |
| 20260506120604 | 8 | 67 | 4.8 | 14.5 | 0.00 | 0.00 | 0.00 | 85 | 1016.2 |
| 20260506120104 | 8 | 41 | 4.8 | 12.9 | 0.00 | 0.00 | 0.00 | 85 | 1016.1 |
| 20260506115604 | 8 | 68 | 4.8 | 14.5 | 0.00 | 0.00 | 0.00 | 85 | 1016.1 |
| 20260506115103 | 8 | 1 | 8.0 | 16.1 | 0.00 | 0.00 | 0.00 | 84 | 1016.1 |
| 20260506114604 | 8 | 28 | 4.8 | 16.1 | 0.00 | 0.00 | 0.00 | 84 | 1016.1 |
| 20260506114104 | 8 | 34 | 4.8 | 12.9 | 0.00 | 0.00 | 0.00 | 84 | 1016.2 |
| 20260506113603 | 8 | 24 | 4.8 | 16.1 | 0.00 | 0.00 | 0.00 | 84 | 1016.2 |
| 20260506113104 | 8 | 5 | 3.2 | 16.1 | 0.00 | 0.00 | 0.00 | 84 | 1016.1 |
| 20260506112604 | 8 | 8 | 4.8 | 19.3 | 0.00 | 0.00 | 0.00 | 84 | 1015.9 |
| 20260506112104 | 8 | 12 | 8.0 | 19.3 | 0.00 | 0.00 | 0.00 | 84 | 1016.0 |
| 20260506111604 | 8 | 32 | 6.4 | 16.1 | 0.00 | 0.00 | 0.00 | 84 | 1015.8 |
| 20260506110104 | 8 | 51 | 4.8 | 16.1 | 0.00 | 0.00 | 0.00 | 83 | 1015.7 |
| 20260506105604 | 8 | 34 | 6.4 | 16.1 | 0.00 | 0.00 | 0.00 | 83 | 1015.7 |
| 20260506105104 | 8 | 65 | 6.4 | 16.1 | 0.00 | 0.00 | 0.00 | 82 | 1015.5 |
| 20260506104604 | 9 | 22 | 8.0 | 14.5 | 0.00 | 0.00 | 0.00 | 82 | 1015.6 |
| 20260506104104 | 9 | 17 | 4.8 | 16.1 | 0.00 | 0.00 | 0.00 | 82 | 1016.0 |
| 20260506103104 | 9 | 11 | 8.0 | 14.5 | 0.00 | 0.00 | 0.00 | 82 | 1016.6 |
| 20260506102604 | 9 | 347 | 8.0 | 14.5 | 0.00 | 0.00 | 0.00 | 81 | 1016.7 |
| 20260506102104 | 9 | 25 | 3.2 | 14.5 | 0.00 | 0.00 | 0.00 | 81 | 1016.3 |
| 20260506101104 | 9 | 38 | 3.2 | 16.1 | 0.00 | 0.00 | 0.00 | 81 | 1016.0 |
| 20260506100604 | 9 | 48 | 4.8 | 16.1 | 0.00 | 0.00 | 0.00 | 81 | 1016.0 |
| 20260506095104 | 9 | 28 | 4.8 | 14.5 | 0.00 | 0.00 | 0.00 | 80 | 1015.8 |
| 20260506094604 | 9 | 40 | 3.2 | 14.5 | 0.00 | 0.00 | 0.00 | 81 | 1015.9 |
| 20260506094104 | 9 | 260 | 3.2 | 12.9 | 0.00 | 0.00 | 0.00 | 80 | 1015.5 |
| 20260506093604 | 9 | 20 | 6.4 | 12.9 | 0.00 | 0.00 | 0.00 | 80 | 1015.3 |
| 20260506093104 | 9 | 8 | 4.8 | 14.5 | 0.00 | 0.00 | 0.00 | 80 | 1015.1 |
| 20260506092604 | 9 | 22 | 4.8 | 16.1 | 0.00 | 0.00 | 0.00 | 80 | 1015.0 |
| 20260506092104 | 9 | 4 | 8.0 | 16.1 | 0.00 | 0.00 | 0.00 | 80 | 1014.9 |
| 20260506091604 | 9 | 45 | 3.2 | 12.9 | 0.00 | 0.00 | 0.00 | 80 | 1014.8 |
| 20260506091104 | 9 | 50 | 4.8 | 11.3 | 0.00 | 0.00 | 0.00 | 79 | 1014.8 |